Flagstaff, AZ

11:11 PM MST on September 03, 2015 (GMT -0700)
University Highlands | | Change Station
CLOSE
Current Station
Personal Weather Station
Location: Flagstaff, AZ
Elevation: 7067 ft
Nearby Weather Stations

Elev 7067 ft 35.17 °N, 111.68 °W | Updated 27 seconds ago

Scattered Clouds
Scattered Clouds
58.8 °F
Feels Like 58.8 °F
N
0.0
Wind Variable Wind from SW
Gusts 0.0 mph

Today
High -- | Low -- °F
--% Chance of Precip.
Yesterday
High -- | Low -- °F
Precip. -- in
6:00 AM 6:50 PM
Waning Gibbous, 63% visible
Pressure 29.91 in
Visibility 10.0 miles
Clouds Few 900 ft
Few 8000 ft
Scattered Clouds 11000 ft
Dew Point 55 °F
Humidity 87%
Rainfall in
Snow Depth Not available.
UV 0.0 out of 12
Pollen 4.10 out of 12
Air Quality Not available.
Flu Activity Not available.
METAR KFLG 040557Z AUTO 22010KT 10SM FEW009 FEW080 SCT110 14/13 A3020 RMK AO2 SLP127 T01390128 10222 20139 50003 TSNO
Pressure 29.91 in
Visibility 10.0 miles
Clouds Few 900 ft
Few 8000 ft
Scattered Clouds 11000 ft
Dew Point 55 °F
Humidity 87%
Rainfall in
Snow Depth Not available.
UV 0.0 out of 12
Pollen 4.10 out of 12
Air Quality Not available.
Flu Activity Not available.
METAR KFLG 040557Z AUTO 22010KT 10SM FEW009 FEW080 SCT110 14/13 A3020 RMK AO2 SLP127 T01390128 10222 20139 50003 TSNO

10-Day Weather Forecast

×

Almanac

Astronomy

Sep. 03, 2015 Rise Set
Actual Time
Civil Twilight
Nautical Twilight
Astronomical Twilight
Moon
Length of Visible Light
Length of Day
Tomorrow will be .
, % of the Moon is Illuminated

Today's Extremes

State Highs State Lows

Community

WunderPhotos

Upload Photos

1,852,132 photos uploaded!

WunderBlogs® & News

Nearby

Air Quality

  Air Quality AQ Index Pollutant
Not available.

Snow Depth

Station Depth Elevation

Earthquake Activity

City Distance Mag. Time & Date
Minimum magnitude displayed is 2.5.

Coastal Water Temperatures

Place Temperature

Stations

Nearby Weather Stations

Station Location Temp. Windchill Dew Point Humidity Wind Precip. Elev Updated Type